Torna al catalogo

SL-14 DEB

LostPO
NORAD 45459·DEBRIS·🇷🇺 Russia

Lanciato Aug 15, 1991 da Plesetsk Cosmodrome

Loading…

Prossimi Passaggi (prossime 24 ore)

TLE

ObsoletoSource: Space-Track

Epoca: Jul 22, 2026, 21:33 UTC

1 45459U 91056CT  26203.89834564  .00009188  00000-0  75210-2 0  9991
2 45459  82.6006  16.5902 0134000 350.9648   8.9102 13.85322802181382

Traccia SL-14 DEB in tempo reale con AllMySat

Download on the App Store